Location: *
(58.7167°N, 26.1833°E)
Time: 16:38:57
(UTC+00:00)

SL-14 R/B - Pass Details

Date: 25 August 2019
Orbit: 519 x 554 km, 82.4° (Epoch: 15 September)

Event Time Altitude Azimuth Distance (km) Brightness Sun altitude
Rises 22:01:53 0° 346° (NNW) 2,746 8.4 -20.6°
Reaches altitude 10° 22:04:04 10° 348° (NNW) 1,849 7.2 -20.6°
Maximum altitude 22:08:09 80° 76° (ENE) 572 3.3 -20.6°
Enters shadow 22:08:47 62° 147° (SSE) 634 3.3 -20.7°
